Time,TemperatureF,DewpointF,PressureIn,WindDirection,WindDirectionDegrees,WindSpeedMPH,WindSpeedGustMPH,Humidity,HourlyPrecipIn,Conditions,Clouds,dailyrainin,SoftwareType,DateUTC
2013-04-04 00:00:00,47.4,14.2,30.22,North,357,1.0,6.0,26,0.00,,CLR,0.00,VWS V14.00,2013-04-04 04:00:00,
2013-04-04 00:15:00,47.4,13.4,30.21,North,356,0.0,5.0,25,0.00,,CLR,0.00,VWS V14.00,2013-04-04 04:15:00,
2013-04-04 00:30:00,47.0,13.9,30.21,North,356,4.0,7.0,26,0.00,,CLR,0.00,VWS V14.00,2013-04-04 04:30:00,
2013-04-04 00:45:00,47.0,13.9,30.22,North,353,6.0,11.0,26,0.00,,CLR,0.00,VWS V14.00,2013-04-04 04:45:00,
2013-04-04 01:00:00,46.2,13.2,30.22,North,356,1.0,6.0,26,0.00,,CLR,0.00,VWS V14.00,2013-04-04 05:00:00,
2013-04-04 01:15:00,45.7,12.8,30.21,North,357,0.0,9.0,26,0.00,,CLR,0.00,VWS V14.00,2013-04-04 05:15:00,
2013-04-04 01:30:00,44.8,12.9,30.21,North,353,1.0,10.0,27,0.00,,CLR,0.00,VWS V14.00,2013-04-04 05:30:00,
2013-04-04 01:45:00,44.1,13.1,30.22,North,356,3.0,10.0,28,0.00,,CLR,0.00,VWS V14.00,2013-04-04 05:45:00,
2013-04-04 02:00:00,43.6,15.0,30.23,North,357,1.0,10.0,31,0.00,,CLR,0.00,VWS V14.00,2013-04-04 06:00:00,
2013-04-04 02:15:00,43.1,16.0,30.23,North,356,1.0,12.0,33,0.00,,CLR,0.00,VWS V14.00,2013-04-04 06:15:00,
2013-04-04 02:30:00,42.6,15.5,30.23,North,359,0.0,14.0,33,0.00,,CLR,0.00,VWS V14.00,2013-04-04 06:30:00,
2013-04-04 02:45:00,42.3,15.9,30.23,North,357,4.0,7.0,34,0.00,,CLR,0.00,VWS V14.00,2013-04-04 06:45:00,
2013-04-04 03:00:00,41.9,15.6,30.23,North,357,2.0,8.0,34,0.00,,CLR,0.00,VWS V14.00,2013-04-04 07:00:00,
2013-04-04 03:15:00,41.8,16.2,30.23,North,359,1.0,7.0,35,0.00,,CLR,0.00,VWS V14.00,2013-04-04 07:15:00,
2013-04-04 03:30:00,41.6,16.6,30.23,North,357,0.0,7.0,36,0.00,,CLR,0.00,VWS V14.00,2013-04-04 07:30:00,
2013-04-04 03:45:00,41.3,16.4,30.22,North,354,1.0,8.0,36,0.00,,CLR,0.00,VWS V14.00,2013-04-04 07:45:00,
2013-04-04 04:00:00,41.1,16.2,30.22,North,359,5.0,7.0,36,0.00,,CLR,0.00,VWS V14.00,2013-04-04 08:00:00,
2013-04-04 04:15:00,40.8,16.6,30.22,North,357,3.0,10.0,37,0.00,,CLR,0.00,VWS V14.00,2013-04-04 08:15:00,
2013-04-04 04:30:00,40.5,17.5,30.22,North,354,3.0,9.0,39,0.00,,CLR,0.00,VWS V14.00,2013-04-04 08:30:00,
2013-04-04 04:45:00,40.3,17.9,30.22,North,350,2.0,11.0,40,0.00,,CLR,0.00,VWS V14.00,2013-04-04 08:45:00,
2013-04-04 05:00:00,40.2,18.4,30.23,North,0,1.0,10.0,41,0.00,,CLR,0.00,VWS V14.00,2013-04-04 09:00:00,
2013-04-04 05:15:00,40.1,20.0,30.23,North,357,2.0,8.0,44,0.00,,CLR,0.00,VWS V14.00,2013-04-04 09:15:00,
2013-04-04 05:30:00,39.9,19.8,30.23,North,0,2.0,9.0,44,0.00,,CLR,0.00,VWS V14.00,2013-04-04 09:30:00,
2013-04-04 05:45:00,39.6,20.0,30.24,North,357,1.0,7.0,45,0.00,,CLR,0.00,VWS V14.00,2013-04-04 09:45:00,
2013-04-04 06:00:00,39.5,19.4,30.24,North,357,6.0,9.0,44,0.00,,CLR,0.00,VWS V14.00,2013-04-04 10:00:00,
2013-04-04 06:15:00,39.3,20.3,30.26,North,0,1.0,10.0,46,0.00,,CLR,0.00,VWS V14.00,2013-04-04 10:15:00,
2013-04-04 06:30:00,39.3,20.3,30.27,North,357,2.0,7.0,46,0.00,,CLR,0.00,VWS V14.00,2013-04-04 10:30:00,
2013-04-04 07:00:00,39.3,21.3,30.28,North,359,1.0,7.0,48,0.00,,CLR,0.00,VWS V14.00,2013-04-04 11:00:00,
2013-04-04 07:15:00,39.6,22.0,30.28,North,357,0.0,8.0,49,0.00,,CLR,0.00,VWS V14.00,2013-04-04 11:15:00,
2013-04-04 07:30:00,40.1,22.5,30.28,North,359,1.0,7.0,49,0.00,,CLR,0.00,VWS V14.00,2013-04-04 11:30:00,
2013-04-04 07:45:00,40.5,23.3,30.28,North,0,7.0,8.0,50,0.00,,CLR,0.00,VWS V14.00,2013-04-04 11:45:00,
2013-04-04 08:00:00,40.5,23.3,30.27,North,357,0.0,8.0,50,0.00,,CLR,0.00,VWS V14.00,2013-04-04 12:00:00,
2013-04-04 08:15:00,40.6,23.4,30.26,North,359,0.0,11.0,50,0.00,,CLR,0.00,VWS V14.00,2013-04-04 12:15:00,
2013-04-04 08:30:00,40.6,23.9,30.25,North,359,5.0,10.0,51,0.00,,CLR,0.00,VWS V14.00,2013-04-04 12:30:00,
2013-04-04 08:45:00,40.9,24.2,30.25,North,359,2.0,10.0,51,0.00,,CLR,0.00,VWS V14.00,2013-04-04 12:45:00,
2013-04-04 09:00:00,41.3,24.5,30.24,North,0,6.0,11.0,51,0.00,,BKN075,0.00,VWS V14.00,2013-04-04 13:00:00,
2013-04-04 09:15:00,41.9,24.6,30.24,North,359,5.0,12.0,50,0.00,,BKN075,0.00,VWS V14.00,2013-04-04 13:15:00,
2013-04-04 09:30:00,42.9,26.5,30.24,North,359,5.0,11.0,52,0.00,,BKN075,0.00,VWS V14.00,2013-04-04 13:30:00,
2013-04-04 09:45:00,43.1,24.8,30.25,North,356,1.0,9.0,48,0.00,,BKN075,0.00,VWS V14.00,2013-04-04 13:45:00,
2013-04-04 10:00:00,42.8,25.0,30.24,North,0,3.0,9.0,49,0.00,,OVC120,0.00,VWS V14.00,2013-04-04 14:00:00,
2013-04-04 10:15:00,43.1,24.3,30.23,North,359,3.0,10.0,47,0.00,,OVC120,0.00,VWS V14.00,2013-04-04 14:15:00,
2013-04-04 10:30:00,42.8,24.5,30.23,North,359,0.0,7.0,48,0.00,,OVC120,0.00,VWS V14.00,2013-04-04 14:30:00,
2013-04-04 10:45:00,42.3,29.4,30.21,North,359,2.0,8.0,60,0.00,,OVC120,0.00,VWS V14.00,2013-04-04 14:45:00,
2013-04-04 11:00:00,43.5,28.4,30.20,North,0,3.0,8.0,55,0.01,,OVC095,0.01,VWS V14.00,2013-04-04 15:00:00,
2013-04-04 11:15:00,43.6,27.1,30.20,North,0,7.0,11.0,52,0.01,,OVC095,0.01,VWS V14.00,2013-04-04 15:15:00,
2013-04-04 11:30:00,43.8,26.4,30.19,North,0,1.0,13.0,50,0.01,,OVC095,0.01,VWS V14.00,2013-04-04 15:30:00,
2013-04-04 11:45:00,44.3,28.3,30.18,North,359,1.0,8.0,53,0.01,,OVC095,0.01,VWS V14.00,2013-04-04 15:45:00,
2013-04-04 12:00:00,44.2,28.2,30.18,North,0,7.0,7.0,53,0.01,,-RA,0.01,VWS V14.00,2013-04-04 16:00:00,
2013-04-04 12:15:00,43.5,31.8,30.17,North,359,2.0,8.0,63,0.00,,-RA,0.01,VWS V14.00,2013-04-04 16:15:00,
2013-04-04 12:30:00,42.9,30.8,30.17,North,0,3.0,7.0,62,0.00,,-RA,0.01,VWS V14.00,2013-04-04 16:30:00,
2013-04-04 12:45:00,42.3,31.8,30.16,North,359,3.0,4.0,66,0.01,,-RA,0.02,VWS V14.00,2013-04-04 16:45:00,
2013-04-04 13:00:00,41.6,32.6,30.17,North,0,0.0,3.0,70,0.03,,OVC095,0.04,VWS V14.00,2013-04-04 17:00:00,
2013-04-04 13:15:00,41.3,35.0,30.18,North,359,0.0,2.0,78,0.05,,OVC095,0.06,VWS V14.00,2013-04-04 17:15:00,
2013-04-04 13:30:00,40.8,35.7,30.17,North,357,0.0,1.0,82,0.06,,OVC095,0.07,VWS V14.00,2013-04-04 17:30:00,
2013-04-04 13:45:00,40.5,35.5,30.14,North,359,0.0,3.0,82,0.08,,OVC095,0.09,VWS V14.00,2013-04-04 17:45:00,
2013-04-04 14:00:00,39.3,34.3,30.14,North,356,0.0,4.0,82,0.12,,OVC055,0.14,VWS V14.00,2013-04-04 18:00:00,
2013-04-04 14:15:00,38.9,33.9,30.14,North,349,0.0,5.0,82,0.12,,OVC055,0.16,VWS V14.00,2013-04-04 18:15:00,
2013-04-04 14:30:00,38.6,33.9,30.13,North,349,0.0,3.0,83,0.11,,OVC055,0.17,VWS V14.00,2013-04-04 18:30:00,
2013-04-04 14:45:00,38.5,34.1,30.13,NNW,328,0.0,2.0,84,0.11,,OVC055,0.18,VWS V14.00,2013-04-04 18:45:00,
2013-04-04 15:00:00,38.0,33.9,30.11,NW,323,0.0,3.0,85,0.11,,OVC060,0.20,VWS V14.00,2013-04-04 19:00:00,
2013-04-04 15:15:00,38.2,34.7,30.11,NW,320,5.0,5.0,87,0.08,,OVC060,0.22,VWS V14.00,2013-04-04 19:15:00,
2013-04-04 16:30:00,36.8,33.9,30.05,NE,48,2.0,7.0,89,0.07,,-RA,0.29,VWS V14.00,2013-04-04 20:30:00,
2013-04-04 16:32:00,37.5,34.0,30.09,West,270,1.0,7.0,87,0.07,,OVC060,0.23,VWS V14.00,2013-04-04 20:32:00,
2013-04-04 16:45:00,36.5,33.6,30.03,North,6,1.0,8.0,89,0.10,,-RA,0.33,VWS V14.00,2013-04-04 20:45:00,
2013-04-04 16:47:00,37.3,34.1,30.08,North,0,0.0,7.0,88,0.07,,OVC060,0.24,VWS V14.00,2013-04-04 20:47:00,
2013-04-04 17:02:00,37.0,33.8,30.08,North,0,5.0,8.0,88,0.06,,-RA,0.24,VWS V14.00,2013-04-04 21:02:00,
2013-04-04 17:16:00,36.9,33.7,30.08,NE,56,2.0,7.0,88,0.06,,-RA,0.26,VWS V14.00,2013-04-04 21:16:00,
2013-04-04 17:30:00,36.3,33.7,30.01,ENE,61,1.0,8.0,90,0.12,,RA,0.38,VWS V14.00,2013-04-04 21:30:00,
2013-04-04 17:45:00,36.2,33.6,30.03,ENE,75,0.0,10.0,90,0.11,,RA,0.40,VWS V14.00,2013-04-04 21:45:00,
2013-04-04 18:00:00,36.2,33.6,30.00,ENE,69,4.0,10.0,90,0.11,,-RA,0.44,VWS V14.00,2013-04-04 22:00:00,
2013-04-04 18:01:00,36.5,33.6,30.03,ENE,68,3.0,11.0,89,0.13,,RA,0.37,VWS V14.00,2013-04-04 22:01:00,
2013-04-04 18:16:00,36.2,33.6,30.02,ENE,58,5.0,12.0,90,0.14,,RA,0.38,VWS V14.00,2013-04-04 22:16:00,
2013-04-04 19:16:00,36.0,33.4,30.01,NW,308,1.0,13.0,90,0.10,,-RA,0.47,VWS V14.00,2013-04-04 23:16:00,
2013-04-04 19:31:00,36.0,33.4,30.00,NE,55,2.0,12.0,90,0.11,,-RA,0.49,VWS V14.00,2013-04-04 23:31:00,
2013-04-04 19:46:00,36.2,33.8,29.99,ENE,65,3.0,8.0,91,0.14,,-RA,0.52,VWS V14.00,2013-04-04 23:46:00,
2013-04-04 20:01:00,36.0,33.6,30.01,NE,48,0.0,13.0,91,0.13,,-RA,0.53,VWS V14.00,2013-04-05 00:01:00,
2013-04-04 20:15:00,36.0,33.6,29.97,ENE,61,1.0,13.0,91,0.06,,-RA,0.59,VWS V14.00,2013-04-05 00:15:00,
2013-04-04 20:16:00,36.2,33.8,30.00,ENE,73,2.0,6.0,91,0.12,,-RA,0.56,VWS V14.00,2013-04-05 00:16:00,
2013-04-04 20:30:00,35.9,33.5,29.97,NE,52,0.0,10.0,91,0.03,,-RA,0.59,VWS V14.00,2013-04-05 00:30:00,
2013-04-04 20:31:00,36.2,33.8,30.00,East,83,6.0,8.0,91,0.10,,-RA,0.57,VWS V14.00,2013-04-05 00:31:00,
2013-04-04 20:46:00,36.3,33.9,30.00,NE,51,1.0,6.0,91,0.09,,-RA,0.58,VWS V14.00,2013-04-05 00:46:00,
2013-04-04 21:02:00,36.2,33.8,29.98,ENE,65,1.0,8.0,91,0.06,,-RA,0.58,VWS V14.00,2013-04-05 01:02:00,
2013-04-04 21:47:00,35.9,33.5,29.96,ESE,123,0.0,8.0,91,0.05,,-RA,0.62,VWS V14.00,2013-04-05 01:47:00,
2013-04-04 22:01:00,35.8,33.4,29.94,SSE,152,0.0,7.0,91,0.08,,-RA,0.66,VWS V14.00,2013-04-05 02:01:00,
2013-04-04 22:30:00,36.2,34.1,29.91,North,0,0.0,4.0,92,0.07,,RA,0.76,VWS V14.00,2013-04-05 02:30:00,
2013-04-04 22:31:00,36.0,33.6,29.95,ESE,116,0.0,7.0,91,0.11,,-RA,0.70,VWS V14.00,2013-04-05 02:31:00,
2013-04-04 22:46:00,36.2,33.8,29.93,North,352,2.0,5.0,91,0.13,,-RA,0.72,VWS V14.00,2013-04-05 02:46:00,
2013-04-04 23:00:00,36.2,34.1,29.90,North,0,0.0,6.0,92,0.06,,-RA,0.78,VWS V14.00,2013-04-05 03:00:00,
2013-04-04 23:01:00,36.3,33.9,29.92,ENE,59,0.0,5.0,91,0.11,,RA,0.73,VWS V14.00,2013-04-05 03:01:00,
2013-04-04 23:15:00,36.2,34.1,29.89,WNW,294,0.0,3.0,92,0.05,,-RA,0.78,VWS V14.00,2013-04-05 03:15:00,
2013-04-04 23:16:00,36.2,33.8,29.91,North,359,0.0,5.0,91,0.09,,RA,0.75,VWS V14.00,2013-04-05 03:16:00,
2013-04-04 23:30:00,36.3,34.2,29.90,NNE,21,0.0,5.0,92,0.03,,-RA,0.78,VWS V14.00,2013-04-05 03:30:00,
2013-04-04 23:45:00,36.3,34.2,29.89,North,0,0.0,5.0,92,0.02,,-RA,0.78,VWS V14.00,2013-04-05 03:45:00,
2013-04-04 23:46:00,36.2,34.1,29.90,NE,42,0.0,6.0,92,0.07,,RA,0.77,VWS V14.00,2013-04-05 03:46:00,